Location: Bayshore Village Mobile Home Park
(26.6945°N, 81.8642°W)
Time: 00:58:28
(UTC+00:00)

SL-16 R/B - Pass Details

Date: 17 June 2021
Orbit: 842 x 846 km, 71.0° (Epoch: 05 August)

Event Time Altitude Azimuth Distance (km) Brightness Sun altitude
Rises 00:56:11 0° 175° (S) 3,381 5.0 -7.4°
Reaches altitude 10° 00:58:50 10° 166° (SSE) 2,450 4.2 -7.9°
Maximum altitude 01:03:49 33° 103° (ESE) 1,370 2.8 -8.8°
Drops below altitude 10° 01:08:49 10° 41° (NE) 2,460 4.5 -9.8°
Sets 01:11:28 0° 32° (NNE) 3,398 5.4 -10.3°
